EW7157 Weather Reports


Display with metric or nautical units.
time (UTC)temp
F
wind
direction
speed
MPH
gust
MPH
rain 1hr
in
rain 24hr
in
rain mn
in
humidity
%
barometer
mb
20201127232141 45 270 0.0 0.0 0.00 0.03 0.03 87 1019.5
20201127231147 46 270 0.0 0.0 0.00 0.03 0.03 87 1019.4
20201127231052 46 270 0.0 0.0 0.00 0.03 0.03 87 1019.4
20201127230050 46 270 0.0 0.0 0.00 0.03 0.03 86 1019.1
20201127225939 46 270 0.0 0.0 0.00 0.03 0.03 86 1019.1
20201127225839 46 270 0.0 0.0 0.00 0.03 0.03 86 1019.1
20201127225742 46 270 0.0 0.0 0.00 0.03 0.03 86 1019.1
20201127224742 46 270 0.0 0.0 0.00 0.03 0.03 85 1019.1
20201127224642 46 270 0.0 0.0 0.00 0.03 0.03 85 1019.1
20201127224547 46 270 0.0 0.0 0.00 0.03 0.03 85 1019.1
20201127223643 47 270 0.0 0.0 0.00 0.03 0.03 84 1019.0
20201127223541 47 270 0.0 0.0 0.00 0.03 0.03 84 1019.0
20201127223442 47 270 0.0 0.0 0.00 0.03 0.03 84 1019.0
20201127223343 47 270 0.0 0.0 0.00 0.03 0.03 85 1019.0
20201127222343 47 270 0.0 0.0 0.00 0.03 0.03 82 1018.9
20201127222239 47 270 0.0 0.0 0.00 0.03 0.03 82 1018.9
20201127221240 48 270 0.0 0.0 0.00 0.03 0.03 81 1018.9
20201127221139 48 270 0.0 0.0 0.00 0.03 0.03 81 1018.9
20201127221048 48 270 0.0 0.0 0.00 0.03 0.03 80 1018.9
20201127220141 49 270 0.0 0.0 0.00 0.03 0.03 79 1018.8
20201127220054 50 270 0.0 0.0 0.00 0.03 0.03 79 1018.8
20201127215046 50 270 0.0 0.0 0.00 0.03 0.03 77 1019.1
20201127214145 51 270 0.0 0.0 0.00 0.03 0.03 76 1019.1
20201127214047 51 270 0.0 0.0 0.00 0.03 0.03 76 1019.2
20201127213943 51 270 0.0 0.0 0.00 0.03 0.03 75 1019.3
20201127212944 52 270 0.0 0.0 0.00 0.03 0.03 74 1019.3
20201127212844 52 270 0.0 0.0 0.00 0.03 0.03 74 1019.4
20201127211843 53 270 0.0 0.0 0.00 0.03 0.03 72 1019.6
20201127210940 53 270 0.0 0.0 0.00 0.03 0.03 71 1019.5
20201127210840 53 270 0.0 0.0 0.00 0.03 0.03 71 1019.6
20201127210741 53 270 0.0 0.0 0.00 0.03 0.03 71 1019.7
20201127205741 53 270 0.0 0.0 0.00 0.03 0.03 71 1019.7
20201127204739 54 180 0.0 0.0 0.00 0.03 0.03 71 1019.8
20201127204644 54 180 0.0 0.0 0.00 0.03 0.03 71 1019.8
20201127204601 54 180 0.0 0.0 0.00 0.03 0.03 71 1019.8
20201127203645 54 180 0.0 0.0 0.00 0.03 0.03 70 1019.6
20201127202741 55 225 0.0 0.0 0.00 0.03 0.03 69 1019.7
20201127201839 55 225 0.0 0.0 0.00 0.03 0.03 68 1019.7
20201127201742 55 225 0.0 0.0 0.00 0.03 0.03 68 1019.8
20201127201641 55 225 0.0 0.0 0.00 0.03 0.03 68 1019.8
20201127201547 55 225 0.0 0.0 0.00 0.03 0.03 68 1019.8
20201127200542 55 225 0.0 0.0 0.00 0.03 0.03 67 1019.9
20201127200442 55 225 0.0 0.0 0.00 0.03 0.03 67 1019.8
20201127200341 55 225 0.0 0.0 0.00 0.03 0.03 67 1019.7
20201127200241 55 225 0.0 0.0 0.00 0.03 0.03 67 1019.7
20201127195340 55 247 0.0 0.0 0.00 0.03 0.03 67 1019.7
20201127195243 55 247 0.0 0.0 0.00 0.03 0.03 67 1019.7
20201127195143 55 247 0.0 0.0 0.00 0.03 0.03 67 1019.7
20201127195045 55 247 0.0 0.0 0.00 0.03 0.03 67 1019.7
20201127194042 55 247 0.0 0.0 0.00 0.03 0.03 68 1019.7
20201127193945 55 247 0.0 0.0 0.00 0.03 0.03 68 1019.7
20201127193841 55 247 0.0 0.0 0.00 0.03 0.03 68 1019.8
20201127193740 55 247 0.0 0.0 0.00 0.03 0.03 67 1019.9
20201127192746 55 247 0.0 0.0 0.00 0.03 0.03 67 1019.7
20201127192655 55 247 0.0 0.0 0.00 0.03 0.03 67 1019.7
20201127192541 55 247 0.0 0.0 0.00 0.03 0.03 67 1019.7
20201127192442 55 247 0.0 0.0 0.00 0.03 0.03 67 1019.7
20201127175341 56 225 0.0 0.0 0.00 0.04 0.03 70 1020.4
20201127175239 56 225 0.0 0.0 0.00 0.04 0.03 70 1020.4
20201127175140 56 225 0.0 0.0 0.00 0.04 0.03 70 1020.4
20201127175042 56 225 0.0 0.0 0.00 0.04 0.03 70 1020.5
20201127174939 56 225 0.0 0.0 0.00 0.04 0.03 70 1020.6
20201127171741 56 270 0.0 0.0 0.00 0.04 0.03 72 1020.8
20201127171656 56 270 0.0 0.0 0.00 0.04 0.03 72 1020.8
20201127171549 56 270 0.0 0.0 0.00 0.04 0.03 72 1020.8
20201127171440 56 270 0.0 0.0 0.00 0.04 0.03 72 1020.8
20201127171340 56 270 0.0 0.0 0.00 0.04 0.03 72 1020.8
20201127170341 56 315 0.0 0.0 0.00 0.04 0.03 74 1020.9
20201127170241 56 315 0.0 0.0 0.00 0.04 0.03 74 1020.9
20201127170139 56 315 0.0 0.0 0.00 0.04 0.03 74 1020.9
20201127170050 56 315 0.0 0.0 0.00 0.04 0.03 74 1020.9
20201127165938 55 315 0.0 0.0 0.00 0.04 0.03 74 1020.9
20201127163639 54 270 0.0 0.0 0.00 0.04 0.03 78 1021.2
20201127163540 54 270 0.0 0.0 0.00 0.04 0.03 79 1021.2
20201127162541 54 270 0.0 0.0 0.03 0.04 0.03 80 1021.5
20201127162441 54 270 0.0 0.0 0.03 0.04 0.03 80 1021.5
20201127162338 54 270 0.0 0.0 0.03 0.04 0.03 80 1021.5
20201127162238 54 270 0.0 0.0 0.03 0.04 0.03 80 1021.5
20201127162142 54 270 1.0 2.0 0.03 0.04 0.03 81 1021.5
20201127161141 54 247 1.0 2.0 0.03 0.04 0.03 83 1021.5
20201127160244 53 270 0.0 0.0 0.03 0.04 0.03 85 1021.7
20201127160145 53 270 0.0 1.0 0.03 0.04 0.03 85 1021.8
20201127160049 53 247 0.0 0.0 0.03 0.04 0.03 85 1021.7
20201127155141 53 247 1.0 1.0 0.03 0.04 0.03 86 1022.0
20201127154141 53 225 0.0 1.0 0.03 0.04 0.03 88 1022.0
20201127154043 53 234 0.0 1.0 0.03 0.04 0.03 88 1021.9
20201127153046 52 315 0.0 0.0 0.00 0.01 0.00 89 1022.0
20201127152137 51 315 0.0 0.0 0.00 0.01 0.00 91 1022.0
20201127152042 51 315 0.0 0.0 0.00 0.01 0.00 91 1022.0
20201127151138 50 315 0.0 0.0 0.00 0.01 0.00 93 1022.0
20201127151041 50 315 0.0 0.0 0.00 0.01 0.00 94 1022.1
20201127150939 49 315 0.0 0.0 0.00 0.01 0.00 94 1022.0
20201127145938 49 315 0.0 0.0 0.00 0.01 0.00 98 1022.2
20201127145840 49 315 0.0 0.0 0.00 0.01 0.00 98 1022.2
20201127144839 48 315 0.0 0.0 0.00 0.01 0.00 99 1022.2
20201127144740 48 315 0.0 0.0 0.00 0.01 0.00 99 1022.1
20201127144637 48 315 0.0 0.0 0.00 0.01 0.00 99 1022.1
20201127143654 47 315 0.0 0.0 0.00 0.01 0.00 100 1022.0
20201127142639 46 315 0.0 0.0 0.00 0.01 0.00 99 1022.2
20201127142543 46 315 0.0 0.0 0.00 0.01 0.00 99 1022.3
20201127141542 45 315 0.0 0.0 0.00 0.01 0.00 100 1022.3
20201127140538 43 315 0.0 0.0 0.00 0.01 0.00 99 1022.5
20201127140440 43 315 0.0 0.0 0.00 0.01 0.00 99 1022.5
20201127135442 43 315 0.0 0.0 0.00 0.01 0.00 99 1022.3
20201127135338 43 315 0.0 0.0 0.00 0.01 0.00 100 1022.3
20201127135238 43 315 0.0 0.0 0.00 0.01 0.00 99 1022.2
20201127135143 42 315 0.0 0.0 0.00 0.01 0.00 99 1022.2
20201127135042 42 315 0.0 0.0 0.00 0.01 0.00 100 1022.3
20201127134042 42 315 0.0 0.0 0.00 0.01 0.00 99 1022.3
20201127133048 41 315 0.0 0.0 0.00 0.01 0.00 99 1022.2
20201127132939 41 315 0.0 0.0 0.00 0.01 0.00 99 1022.2
20201127130937 41 315 0.0 0.0 0.00 0.01 0.00 99 1022.0
20201127130838 41 315 0.0 0.0 0.00 0.01 0.00 99 1022.0
20201127130737 41 315 0.0 0.0 0.00 0.01 0.00 99 1022.0
20201127130638 41 315 0.0 0.0 0.00 0.01 0.00 99 1022.0
20201127130542 41 315 0.0 0.0 0.00 0.01 0.00 99 1022.0
20201127125440 41 315 0.0 0.0 0.00 0.01 0.00 99 1022.1
20201127125340 41 315 0.0 0.0 0.00 0.01 0.00 99 1022.1
20201127125237 41 315 0.0 0.0 0.00 0.01 0.00 99 1022.1
20201127124239 41 315 0.0 0.0 0.00 0.01 0.00 99 1022.1
20201127124137 41 315 0.0 0.0 0.00 0.01 0.00 99 1022.0
20201127124044 41 315 0.0 0.0 0.00 0.01 0.00 99 1021.9
20201127123938 41 315 0.0 0.0 0.00 0.01 0.00 99 1021.9
20201127122940 42 315 0.0 0.0 0.00 0.01 0.00 99 1021.9
20201127122838 42 315 0.0 0.0 0.00 0.01 0.00 99 1021.9
20201127122737 42 315 0.0 0.0 0.00 0.01 0.00 99 1021.9
20201127121538 41 315 0.0 0.0 0.00 0.01 0.00 99 1021.6
20201127120637 41 315 0.0 0.0 0.00 0.01 0.00 99 1021.5
20201127115739 41 315 0.0 0.0 0.00 0.01 0.00 99 1021.5
20201127114740 41 315 0.0 0.0 0.00 0.01 0.00 100 1021.5
20201127114641 41 315 0.0 0.0 0.00 0.01 0.00 99 1021.5
20201127114540 41 315 0.0 0.0 0.00 0.01 0.00 99 1021.5
20201127113645 41 315 0.0 0.0 0.00 0.01 0.00 99 1021.4
20201127113539 41 315 0.0 0.0 0.00 0.01 0.00 99 1021.4
20201127113436 41 315 0.0 0.0 0.00 0.01 0.00 99 1021.5
20201127113341 41 315 0.0 0.0 0.00 0.01 0.00 99 1021.5
20201127112435 41 315 0.0 0.0 0.00 0.01 0.00 99 1021.6
20201127111439 42 315 0.0 0.0 0.00 0.01 0.00 99 1021.5
20201127111337 42 315 0.0 0.0 0.00 0.01 0.00 99 1021.5
20201127110341 42 315 0.0 0.0 0.00 0.01 0.00 99 1021.6
20201127105345 42 315 0.0 0.0 0.00 0.01 0.00 99 1021.5
20201127105239 42 315 0.0 0.0 0.00 0.01 0.00 99 1021.5
20201127105141 42 315 0.0 0.0 0.00 0.01 0.00 99 1021.5
20201127105050 42 315 0.0 0.0 0.00 0.01 0.00 99 1021.5
20201127104138 42 315 0.0 0.0 0.00 0.01 0.00 98 1021.4
20201127103235 42 315 0.0 0.0 0.00 0.01 0.00 99 1021.4
20201127102237 43 315 0.0 0.0 0.00 0.01 0.00 99 1021.3
20201127101236 43 315 0.0 0.0 0.00 0.03 0.00 99 1021.5
20201127101136 43 315 0.0 0.0 0.00 0.04 0.00 99 1021.5
20201127101040 43 315 0.0 0.0 0.00 0.05 0.00 99 1021.5
20201127100047 43 315 0.0 0.0 0.00 0.08 0.00 99 1021.4
20201127094137 43 315 0.0 0.0 0.00 0.10 0.00 98 1021.4
20201127094041 43 315 0.0 0.0 0.00 0.10 0.00 98 1021.4
20201127093049 44 315 0.0 0.0 0.00 0.13 0.00 98 1021.2
20201127092042 44 315 0.0 0.0 0.00 0.14 0.00 98 1021.3
20201127091137 44 315 0.0 0.0 0.00 0.15 0.00 98 1021.2
20201127090237 45 315 0.0 0.0 0.00 0.17 0.00 98 1021.1
20201127085341 45 315 0.0 0.0 0.00 0.22 0.00 98 1021.3
20201127085237 45 315 0.0 0.0 0.00 0.22 0.00 98 1021.3
20201127084335 45 315 0.0 0.0 0.00 0.23 0.00 98 1021.3
20201127083338 45 315 0.0 0.0 0.00 0.24 0.00 98 1021.4
20201127083238 45 315 0.0 0.0 0.00 0.24 0.00 98 1021.4
20201127082337 45 315 0.0 0.0 0.00 0.25 0.00 99 1021.4
20201127081337 45 315 0.0 0.0 0.00 0.26 0.00 98 1021.5
20201127080339 44 315 0.0 0.0 0.00 0.26 0.00 98 1021.3
20201127075438 44 315 0.0 0.0 0.00 0.27 0.00 98 1021.4
20201127075336 44 315 0.0 0.0 0.00 0.27 0.00 98 1021.4
20201127074347 44 315 0.0 0.0 0.00 0.28 0.00 98 1021.4
20201127073339 44 315 0.0 0.0 0.00 0.28 0.00 98 1021.4
20201127072435 44 315 0.0 0.0 0.00 0.28 0.00 98 1021.3
20201127071456 44 315 0.0 0.0 0.00 0.30 0.00 98 1021.3
20201127070538 44 315 0.0 0.0 0.00 0.30 0.00 98 1021.3
20201127070439 44 315 0.0 0.0 0.00 0.30 0.00 98 1021.3
20201127070339 44 315 0.0 0.0 0.00 0.30 0.00 98 1021.3
20201127070251 44 315 0.0 0.0 0.00 0.31 0.00 98 1021.2
20201127065338 44 315 0.0 0.0 0.00 0.31 0.00 98 1021.4
20201127065240 44 315 0.0 0.0 0.00 0.31 0.00 98 1021.4
20201127064338 44 315 0.0 0.0 0.00 0.31 0.00 98 1021.3
20201127064241 44 315 0.0 0.0 0.00 0.31 0.00 98 1021.3
20201127063338 44 315 0.0 0.0 0.00 0.31 0.00 98 1021.3
20201127062338 44 315 0.0 0.0 0.00 0.31 0.00 98 1021.4
20201127062243 44 315 0.0 0.0 0.00 0.31 0.00 98 1021.3
20201127062140 44 315 0.0 0.0 0.00 0.31 0.00 98 1021.3
20201127062043 44 315 0.0 0.0 0.00 0.31 0.00 98 1021.3
20201127061137 44 315 0.0 0.0 0.00 0.31 0.00 98 1021.4
20201127060159 43 315 0.0 0.0 0.00 0.31 0.00 98 1021.1
20201127060051 43 315 0.0 0.0 0.00 0.31 0.00 98 1021.1
20201127055041 43 315 0.0 0.0 0.00 0.31 0.00 98 1021.2
20201127054140 43 315 0.0 0.0 0.00 0.31 0.00 98 1021.2
20201127054043 43 315 0.0 0.0 0.00 0.31 0.00 98 1021.2
20201127053048 43 315 0.0 0.0 0.00 0.31 0.00 98 1021.1
20201127052140 43 315 0.0 0.0 0.00 0.31 0.00 99 1021.2
20201127052039 43 315 0.0 0.0 0.00 0.31 0.00 98 1021.2
20201127051141 43 315 0.0 0.0 0.00 0.31 0.00 98 1021.2
20201127050139 43 315 0.0 0.0 0.00 0.31 0.00 99 1021.3
20201127050032 43 315 0.0 0.0 0.00 0.31 0.00 99 1021.1
20201126235921 48 315 0.0 0.0 0.00 0.31 0.31 89 1020.3
20201126235821 48 315 0.0 0.0 0.00 0.31 0.31 90 1020.2